Year,Month,Day,Hour,Minute,Value (Times are PST for windspeed in km/hr)
2018,09,02,00,00,0.00
2018,09,02,00,01,0.00
2018,09,02,00,02,0.10
2018,09,02,00,03,0.40
2018,09,02,00,04,1.00
2018,09,02,00,05,1.60
2018,09,02,00,06,1.20
2018,09,02,00,07,1.10
2018,09,02,00,08,1.70
2018,09,02,00,09,1.20
2018,09,02,00,10,1.50
2018,09,02,00,11,1.80
2018,09,02,00,12,1.90
2018,09,02,00,13,0.90
2018,09,02,00,14,1.90
2018,09,02,00,15,1.60
2018,09,02,00,16,1.20
2018,09,02,00,17,1.60
2018,09,02,00,18,2.30
2018,09,02,00,19,2.10
2018,09,02,00,20,1.10
2018,09,02,00,21,1.20
2018,09,02,00,22,0.20
2018,09,02,00,23,0.20
2018,09,02,00,24,1.90
2018,09,02,00,25,1.80
2018,09,02,00,26,1.60
2018,09,02,00,27,0.90
2018,09,02,00,28,1.00
2018,09,02,00,29,0.40
2018,09,02,00,30,1.00
2018,09,02,00,31,0.80
2018,09,02,00,32,0.80
2018,09,02,00,33,0.70
2018,09,02,00,34,1.10
2018,09,02,00,35,1.50
2018,09,02,00,36,1.20
2018,09,02,00,37,1.30
2018,09,02,00,38,1.40
2018,09,02,00,39,0.90
2018,09,02,00,40,1.00
2018,09,02,00,41,1.20
2018,09,02,00,42,1.30
2018,09,02,00,43,2.00
2018,09,02,00,44,1.80
2018,09,02,00,45,1.90
2018,09,02,00,46,1.50
2018,09,02,00,47,1.30
2018,09,02,00,48,1.80
2018,09,02,00,49,1.70
2018,09,02,00,50,1.30
2018,09,02,00,51,0.60
2018,09,02,00,52,0.50
2018,09,02,00,53,1.20
2018,09,02,00,54,0.90
2018,09,02,00,55,1.20
2018,09,02,00,56,1.60
2018,09,02,00,57,1.60
2018,09,02,00,58,1.50
2018,09,02,00,59,0.40
2018,09,02,01,00,0.60
2018,09,02,01,01,1.80
2018,09,02,01,02,2.00
2018,09,02,01,03,2.10
2018,09,02,01,04,1.70
2018,09,02,01,05,1.60
2018,09,02,01,06,1.70
2018,09,02,01,07,1.50
2018,09,02,01,08,1.70
2018,09,02,01,09,1.60
2018,09,02,01,10,1.60
2018,09,02,01,11,1.10
2018,09,02,01,12,1.00
2018,09,02,01,13,0.70
2018,09,02,01,14,0.80
2018,09,02,01,15,0.60
2018,09,02,01,16,0.90
2018,09,02,01,17,0.30
2018,09,02,01,18,0.40
2018,09,02,01,19,1.50
2018,09,02,01,20,1.40
2018,09,02,01,21,1.60
2018,09,02,01,22,1.50
2018,09,02,01,23,1.70
2018,09,02,01,24,1.60
2018,09,02,01,25,1.90
2018,09,02,01,26,1.70
2018,09,02,01,27,1.20
2018,09,02,01,28,1.20
2018,09,02,01,29,1.40
2018,09,02,01,30,1.30
2018,09,02,01,31,1.40
2018,09,02,01,32,1.20
2018,09,02,01,33,1.20
2018,09,02,01,34,1.50
2018,09,02,01,35,1.20
2018,09,02,01,36,1.60
2018,09,02,01,37,1.30
2018,09,02,01,38,1.20
2018,09,02,01,39,0.80
2018,09,02,01,40,1.00
2018,09,02,01,41,0.40
2018,09,02,01,42,0.70
2018,09,02,01,43,1.60
2018,09,02,01,44,1.60
2018,09,02,01,45,1.40
2018,09,02,01,46,1.80
2018,09,02,01,47,1.40
2018,09,02,01,48,1.20
2018,09,02,01,49,0.60
2018,09,02,01,50,1.80
2018,09,02,01,51,1.70
2018,09,02,01,52,1.90
2018,09,02,01,53,1.60
2018,09,02,01,54,1.60
2018,09,02,01,55,1.60
2018,09,02,01,56,1.60
2018,09,02,01,57,1.70
2018,09,02,01,58,1.50
2018,09,02,01,59,1.50
2018,09,02,02,00,1.50
2018,09,02,02,01,1.20
2018,09,02,02,02,1.30
2018,09,02,02,03,1.60
2018,09,02,02,04,1.70
2018,09,02,02,05,1.80
2018,09,02,02,06,2.30
2018,09,02,02,07,2.10
2018,09,02,02,08,1.60
2018,09,02,02,09,2.00
2018,09,02,02,10,2.00
2018,09,02,02,11,2.10
2018,09,02,02,12,1.90
2018,09,02,02,13,2.30
2018,09,02,02,14,2.20
2018,09,02,02,15,2.30
2018,09,02,02,16,2.30
2018,09,02,02,17,2.10
2018,09,02,02,18,2.10
2018,09,02,02,19,1.90
2018,09,02,02,20,1.50
2018,09,02,02,21,1.20
2018,09,02,02,22,1.40
2018,09,02,02,23,0.60
2018,09,02,02,24,1.30
2018,09,02,02,25,1.20
2018,09,02,02,26,0.80
2018,09,02,02,27,1.50
2018,09,02,02,28,0.90
2018,09,02,02,29,1.20
2018,09,02,02,30,2.00
2018,09,02,02,31,1.60
2018,09,02,02,32,1.60
2018,09,02,02,33,1.70
2018,09,02,02,34,2.10
2018,09,02,02,35,2.50
2018,09,02,02,36,2.80
2018,09,02,02,37,2.30
2018,09,02,02,38,2.20
2018,09,02,02,39,1.40
2018,09,02,02,40,1.60
2018,09,02,02,41,1.50
2018,09,02,02,42,1.10
2018,09,02,02,43,0.80
2018,09,02,02,44,1.50
2018,09,02,02,45,1.90
2018,09,02,02,46,1.90
2018,09,02,02,47,1.80
2018,09,02,02,48,2.10
2018,09,02,02,49,1.90
2018,09,02,02,50,2.20
2018,09,02,02,51,2.20
2018,09,02,02,52,1.90
2018,09,02,02,53,2.70
2018,09,02,02,54,2.20
2018,09,02,02,55,2.10
2018,09,02,02,56,2.40
2018,09,02,02,57,2.30
2018,09,02,02,58,1.90
2018,09,02,02,59,1.90
2018,09,02,03,00,1.50
2018,09,02,03,01,1.40
2018,09,02,03,02,1.90
2018,09,02,03,03,1.60
2018,09,02,03,04,1.20
2018,09,02,03,05,2.00
2018,09,02,03,06,2.10
2018,09,02,03,07,2.10
2018,09,02,03,08,2.00
2018,09,02,03,09,1.20
2018,09,02,03,10,0.20
2018,09,02,03,11,0.10
2018,09,02,03,12,1.30
2018,09,02,03,13,1.50
2018,09,02,03,14,1.30
2018,09,02,03,15,1.10
2018,09,02,03,16,0.90
2018,09,02,03,17,1.60
2018,09,02,03,18,2.20
2018,09,02,03,19,2.00
2018,09,02,03,20,2.10
2018,09,02,03,21,2.20
2018,09,02,03,22,1.60
2018,09,02,03,23,1.60
2018,09,02,03,24,1.60
2018,09,02,03,25,1.70
2018,09,02,03,26,1.70
2018,09,02,03,27,1.80
2018,09,02,03,28,2.00
2018,09,02,03,29,1.90
2018,09,02,03,30,1.00
2018,09,02,03,31,1.40
2018,09,02,03,32,1.00
2018,09,02,03,33,1.20
2018,09,02,03,34,1.10
2018,09,02,03,35,1.50
2018,09,02,03,36,0.80
2018,09,02,03,37,1.60
2018,09,02,03,38,1.40
2018,09,02,03,39,0.50
2018,09,02,03,40,0.70
2018,09,02,03,41,1.60
2018,09,02,03,42,1.60
2018,09,02,03,43,1.00
2018,09,02,03,44,1.40
2018,09,02,03,45,1.70
2018,09,02,03,46,2.20
2018,09,02,03,47,1.60
2018,09,02,03,48,1.50
2018,09,02,03,49,2.50
2018,09,02,03,50,3.10
2018,09,02,03,51,2.10
2018,09,02,03,52,2.30
2018,09,02,03,53,2.50
2018,09,02,03,54,2.00
2018,09,02,03,55,2.00
2018,09,02,03,56,1.90
2018,09,02,03,57,2.10
2018,09,02,03,58,2.10
2018,09,02,03,59,1.70
2018,09,02,04,00,1.60
2018,09,02,04,01,2.10
2018,09,02,04,02,2.20
2018,09,02,04,03,1.80
2018,09,02,04,04,1.70
2018,09,02,04,05,1.50
2018,09,02,04,06,1.30
2018,09,02,04,07,0.40
2018,09,02,04,08,0.10
2018,09,02,04,09,1.50
2018,09,02,04,10,0.30
2018,09,02,04,11,0.70
2018,09,02,04,12,1.10
2018,09,02,04,13,0.80
2018,09,02,04,14,0.90
2018,09,02,04,15,0.90
2018,09,02,04,16,1.40
2018,09,02,04,17,1.20
2018,09,02,04,18,0.90
2018,09,02,04,19,1.50
2018,09,02,04,20,1.00
2018,09,02,04,21,0.60
2018,09,02,04,22,0.20
2018,09,02,04,23,1.00
2018,09,02,04,24,0.50
2018,09,02,04,25,0.80
2018,09,02,04,26,2.00
2018,09,02,04,27,2.10
2018,09,02,04,28,1.90
2018,09,02,04,29,1.50
2018,09,02,04,30,1.40
2018,09,02,04,31,0.60
2018,09,02,04,32,0.90
2018,09,02,04,33,0.50
2018,09,02,04,34,0.30
2018,09,02,04,35,0.20
2018,09,02,04,36,0.30
2018,09,02,04,37,0.80
2018,09,02,04,38,1.00
2018,09,02,04,39,1.00
2018,09,02,04,40,1.30
2018,09,02,04,41,1.60
2018,09,02,04,42,1.80
2018,09,02,04,43,1.90
2018,09,02,04,44,1.20
2018,09,02,04,45,0.30
2018,09,02,04,46,0.50
2018,09,02,04,47,0.80
2018,09,02,04,48,1.30
2018,09,02,04,49,1.80
2018,09,02,04,50,1.70
2018,09,02,04,51,1.30
2018,09,02,04,52,1.50
2018,09,02,04,53,0.60
2018,09,02,04,54,0.70
2018,09,02,04,55,0.30
2018,09,02,04,56,0.60
2018,09,02,04,57,1.10
2018,09,02,04,58,0.80
2018,09,02,04,59,1.50
2018,09,02,05,00,2.10
2018,09,02,05,01,1.90
2018,09,02,05,02,1.70
2018,09,02,05,03,2.40
2018,09,02,05,04,2.20
2018,09,02,05,05,2.10
2018,09,02,05,06,1.80
2018,09,02,05,07,2.00
2018,09,02,05,08,1.70
2018,09,02,05,09,1.80
2018,09,02,05,10,1.50
2018,09,02,05,11,1.10
2018,09,02,05,12,0.40
2018,09,02,05,13,1.20
2018,09,02,05,14,1.50
2018,09,02,05,15,1.20
2018,09,02,05,16,0.90
2018,09,02,05,17,1.90
2018,09,02,05,18,1.70
2018,09,02,05,19,1.60
2018,09,02,05,20,1.50
2018,09,02,05,21,1.60
2018,09,02,05,22,1.50
2018,09,02,05,23,1.40
2018,09,02,05,24,0.30
2018,09,02,05,25,0.10
2018,09,02,05,26,0.00
2018,09,02,05,27,0.10
2018,09,02,05,28,0.10
2018,09,02,05,29,0.90
2018,09,02,05,30,1.50
2018,09,02,05,31,2.10
2018,09,02,05,32,2.20
2018,09,02,05,33,2.30
2018,09,02,05,34,2.20
2018,09,02,05,35,1.60
2018,09,02,05,36,1.60
2018,09,02,05,37,1.20
2018,09,02,05,38,0.90
2018,09,02,05,39,1.20
2018,09,02,05,40,1.60
2018,09,02,05,41,1.80
2018,09,02,05,42,1.70
2018,09,02,05,43,1.00
2018,09,02,05,44,0.70
2018,09,02,05,45,0.20
2018,09,02,05,46,0.90
2018,09,02,05,47,1.30
2018,09,02,05,48,1.70
2018,09,02,05,49,2.40
2018,09,02,05,50,2.40
2018,09,02,05,51,2.20
2018,09,02,05,52,1.70
2018,09,02,05,53,1.20
2018,09,02,05,54,1.20
2018,09,02,05,55,0.90
2018,09,02,05,56,1.20
2018,09,02,05,57,1.20
2018,09,02,05,58,1.90
2018,09,02,05,59,1.70
2018,09,02,06,00,1.10
2018,09,02,06,01,1.40
2018,09,02,06,02,2.30
2018,09,02,06,03,1.60
2018,09,02,06,04,0.90
2018,09,02,06,05,0.50
2018,09,02,06,06,0.40
2018,09,02,06,07,0.40
2018,09,02,06,08,0.90
2018,09,02,06,09,1.40
2018,09,02,06,10,0.80
2018,09,02,06,11,0.70
2018,09,02,06,12,1.30
2018,09,02,06,13,0.80
2018,09,02,06,14,1.20
2018,09,02,06,15,2.20
2018,09,02,06,16,1.80
2018,09,02,06,17,1.80
2018,09,02,06,18,0.80
2018,09,02,06,19,1.60
2018,09,02,06,20,1.70
2018,09,02,06,21,1.20
2018,09,02,06,22,1.30
2018,09,02,06,23,1.20
2018,09,02,06,24,0.30
2018,09,02,06,25,1.50
2018,09,02,06,26,1.50
2018,09,02,06,27,1.70
2018,09,02,06,28,2.30
2018,09,02,06,29,1.80
2018,09,02,06,30,2.20
2018,09,02,06,31,1.90
2018,09,02,06,32,1.90
2018,09,02,06,33,1.40
2018,09,02,06,34,1.00
2018,09,02,06,35,1.10
2018,09,02,06,36,1.70
2018,09,02,06,37,1.70
2018,09,02,06,38,1.70
2018,09,02,06,39,1.50
2018,09,02,06,40,1.50
2018,09,02,06,41,1.60
2018,09,02,06,42,0.60
2018,09,02,06,43,1.40
2018,09,02,06,44,1.20
2018,09,02,06,45,0.90
2018,09,02,06,46,1.60
2018,09,02,06,47,1.70
2018,09,02,06,48,1.80
2018,09,02,06,49,1.70
2018,09,02,06,50,1.90
2018,09,02,06,51,1.40
2018,09,02,06,52,1.60
2018,09,02,06,53,1.50
2018,09,02,06,54,1.10
2018,09,02,06,55,1.90
2018,09,02,06,56,1.50
2018,09,02,06,57,1.40
2018,09,02,06,58,1.50
2018,09,02,06,59,0.90
2018,09,02,07,00,0.80
2018,09,02,07,01,0.70
2018,09,02,07,02,1.60
2018,09,02,07,03,1.30
2018,09,02,07,04,1.70
2018,09,02,07,05,1.80
2018,09,02,07,06,1.90
2018,09,02,07,07,2.00
2018,09,02,07,08,2.10
2018,09,02,07,09,1.80
2018,09,02,07,10,0.60
2018,09,02,07,11,1.00
2018,09,02,07,12,0.80
2018,09,02,07,13,1.10
2018,09,02,07,14,1.30
2018,09,02,07,15,1.10
2018,09,02,07,16,1.50
2018,09,02,07,17,1.70
2018,09,02,07,18,1.60
2018,09,02,07,19,1.60
2018,09,02,07,20,1.30
2018,09,02,07,21,2.00
2018,09,02,07,22,1.30
2018,09,02,07,23,0.90
2018,09,02,07,24,1.50
2018,09,02,07,25,1.60
2018,09,02,07,26,2.40
2018,09,02,07,27,2.90
2018,09,02,07,28,2.40
2018,09,02,07,29,2.30
2018,09,02,07,30,1.90
2018,09,02,07,31,1.60
2018,09,02,07,32,1.90
2018,09,02,07,33,2.30
2018,09,02,07,34,2.30
2018,09,02,07,35,3.10
2018,09,02,07,36,2.80
2018,09,02,07,37,2.50
2018,09,02,07,38,2.70
2018,09,02,07,39,2.80
2018,09,02,07,40,2.80
2018,09,02,07,41,2.70
2018,09,02,07,42,2.10
2018,09,02,07,43,1.30
2018,09,02,07,44,1.50
2018,09,02,07,45,1.90
2018,09,02,07,46,1.40
2018,09,02,07,47,0.40
2018,09,02,07,48,1.00
2018,09,02,07,49,2.10
2018,09,02,07,50,2.20
2018,09,02,07,51,3.00
2018,09,02,07,52,2.70
2018,09,02,07,53,2.50
2018,09,02,07,54,2.90
2018,09,02,07,55,3.00
2018,09,02,07,56,3.20
2018,09,02,07,57,2.40
2018,09,02,07,58,0.90
2018,09,02,07,59,1.60
2018,09,02,08,00,0.80
2018,09,02,08,01,0.90
2018,09,02,08,02,0.60
2018,09,02,08,03,0.40
2018,09,02,08,04,0.30
2018,09,02,08,05,0.70
2018,09,02,08,06,0.60
2018,09,02,08,07,0.60
2018,09,02,08,08,0.70
2018,09,02,08,09,0.30
2018,09,02,08,10,0.60
2018,09,02,08,11,0.70
2018,09,02,08,12,0.60
2018,09,02,08,13,1.10
2018,09,02,08,14,0.90
2018,09,02,08,15,0.30
2018,09,02,08,16,0.20
2018,09,02,08,17,0.00
2018,09,02,08,18,0.30
2018,09,02,08,19,0.50
2018,09,02,08,20,1.30
2018,09,02,08,21,1.30
2018,09,02,08,22,1.60
2018,09,02,08,23,0.60
2018,09,02,08,24,0.10
2018,09,02,08,25,0.40
2018,09,02,08,26,1.00
2018,09,02,08,27,0.90
2018,09,02,08,28,0.90
2018,09,02,08,29,0.60
2018,09,02,08,30,1.20
2018,09,02,08,31,0.60
2018,09,02,08,32,0.40
2018,09,02,08,33,1.10
2018,09,02,08,34,1.80
2018,09,02,08,35,1.20
2018,09,02,08,36,0.10
2018,09,02,08,37,0.50
2018,09,02,08,38,0.10
2018,09,02,08,39,0.00
2018,09,02,08,40,0.10
2018,09,02,08,41,0.30
2018,09,02,08,42,1.40
2018,09,02,08,43,2.00
2018,09,02,08,44,0.40
2018,09,02,08,45,1.20
2018,09,02,08,46,1.40
2018,09,02,08,47,0.30
2018,09,02,08,48,0.60
2018,09,02,08,49,0.10
2018,09,02,08,50,0.10
2018,09,02,08,51,0.00
2018,09,02,08,52,0.30
2018,09,02,08,53,0.40
2018,09,02,08,54,0.10
2018,09,02,08,55,0.10
2018,09,02,08,56,0.00
2018,09,02,08,57,0.00
2018,09,02,08,58,0.40
2018,09,02,08,59,1.00
2018,09,02,09,00,0.90
2018,09,02,09,01,1.60
2018,09,02,09,02,1.50
2018,09,02,09,03,1.10
2018,09,02,09,04,1.50
2018,09,02,09,05,0.10
2018,09,02,09,06,0.20
2018,09,02,09,07,1.70
2018,09,02,09,08,0.20
2018,09,02,09,09,1.30
2018,09,02,09,10,0.40
2018,09,02,09,11,0.70
2018,09,02,09,12,0.30
2018,09,02,09,13,2.10
2018,09,02,09,14,2.50
2018,09,02,09,15,0.90
2018,09,02,09,16,0.50
2018,09,02,09,17,0.10
2018,09,02,09,18,0.10
2018,09,02,09,19,0.00
2018,09,02,09,20,0.40
2018,09,02,09,21,0.20
2018,09,02,09,22,1.30
2018,09,02,09,23,1.30
2018,09,02,09,24,1.20
2018,09,02,09,25,2.00
2018,09,02,09,26,1.30
2018,09,02,09,27,2.10
2018,09,02,09,28,0.80
2018,09,02,09,29,0.90
2018,09,02,09,30,1.90
2018,09,02,09,31,1.50
2018,09,02,09,32,1.40
2018,09,02,09,33,2.20
2018,09,02,09,34,2.20
2018,09,02,09,35,1.40
2018,09,02,09,36,1.10
2018,09,02,09,37,2.90
2018,09,02,09,38,2.90
2018,09,02,09,39,2.90
2018,09,02,09,40,5.70
2018,09,02,09,41,4.90
2018,09,02,09,42,2.50
2018,09,02,09,43,3.20
2018,09,02,09,44,1.00
2018,09,02,09,45,2.80
2018,09,02,09,46,2.10
2018,09,02,09,47,2.40
2018,09,02,09,48,3.10
2018,09,02,09,49,2.70
2018,09,02,09,50,2.10
2018,09,02,09,51,5.30
2018,09,02,09,52,3.60
2018,09,02,09,53,1.10
2018,09,02,09,54,2.50
2018,09,02,09,55,1.70
2018,09,02,09,56,4.10
2018,09,02,09,57,2.10
2018,09,02,09,58,3.90
2018,09,02,09,59,2.60
2018,09,02,10,00,3.40
2018,09,02,10,01,2.80
2018,09,02,10,02,2.70
2018,09,02,10,03,2.70
2018,09,02,10,04,2.40
2018,09,02,10,05,1.40
2018,09,02,10,06,1.60
2018,09,02,10,07,1.60
2018,09,02,10,08,1.30
2018,09,02,10,09,5.70
2018,09,02,10,10,5.40
2018,09,02,10,11,3.00
2018,09,02,10,12,8.50
2018,09,02,10,13,6.60
2018,09,02,10,14,5.10
2018,09,02,10,15,4.60
2018,09,02,10,16,3.20
2018,09,02,10,17,2.80
2018,09,02,10,18,3.00
2018,09,02,10,19,2.20
2018,09,02,10,20,4.80
2018,09,02,10,21,5.90
2018,09,02,10,22,2.80
2018,09,02,10,23,2.00
2018,09,02,10,24,3.60
2018,09,02,10,25,3.20
2018,09,02,10,26,3.80
2018,09,02,10,27,7.90
2018,09,02,10,28,3.00
2018,09,02,10,29,4.20
2018,09,02,10,30,4.00
2018,09,02,10,31,4.00
2018,09,02,10,32,3.60
2018,09,02,10,33,2.50
2018,09,02,10,34,4.30
2018,09,02,10,35,3.40
2018,09,02,10,36,3.70
2018,09,02,10,37,3.60
2018,09,02,10,38,6.30
2018,09,02,10,39,5.70
2018,09,02,10,40,1.90
2018,09,02,10,41,2.10
2018,09,02,10,42,4.60
2018,09,02,10,43,1.70
2018,09,02,10,44,3.80
2018,09,02,10,45,3.70
2018,09,02,10,46,5.90
2018,09,02,10,47,4.40
2018,09,02,10,48,3.00
2018,09,02,10,49,1.00
2018,09,02,10,50,2.30
2018,09,02,10,51,5.90
2018,09,02,10,52,5.90
2018,09,02,10,53,4.80
2018,09,02,10,54,0.70
2018,09,02,10,55,1.90
2018,09,02,10,56,7.70
2018,09,02,10,57,7.00
2018,09,02,10,58,4.50
2018,09,02,10,59,4.50
2018,09,02,11,00,2.80
2018,09,02,11,01,2.40
2018,09,02,11,02,3.20
2018,09,02,11,03,5.10
2018,09,02,11,04,7.00
2018,09,02,11,05,3.40
2018,09,02,11,06,3.90
2018,09,02,11,07,8.20
2018,09,02,11,08,11.40
2018,09,02,11,09,6.70
2018,09,02,11,10,4.80
2018,09,02,11,11,7.30
2018,09,02,11,12,5.60
2018,09,02,11,13,2.40
2018,09,02,11,14,2.00
2018,09,02,11,15,2.40
2018,09,02,11,16,5.00
2018,09,02,11,17,5.30
2018,09,02,11,18,3.00
2018,09,02,11,19,3.30
2018,09,02,11,20,3.90
2018,09,02,11,21,1.60
2018,09,02,11,22,5.10
2018,09,02,11,23,3.80
2018,09,02,11,24,8.10
2018,09,02,11,25,5.00
2018,09,02,11,26,2.70
2018,09,02,11,27,1.00
2018,09,02,11,28,2.50
2018,09,02,11,29,6.60
2018,09,02,11,30,4.50
2018,09,02,11,31,4.20
2018,09,02,11,32,4.40
2018,09,02,11,33,2.70
2018,09,02,11,34,3.80
2018,09,02,11,35,3.10
2018,09,02,11,36,2.70
2018,09,02,11,37,6.30
2018,09,02,11,38,5.80
2018,09,02,11,39,7.70
2018,09,02,11,40,3.50
2018,09,02,11,41,2.90
2018,09,02,11,42,5.90
2018,09,02,11,43,6.10
2018,09,02,11,44,4.50
2018,09,02,11,45,2.40
2018,09,02,11,46,4.30
2018,09,02,11,47,1.90
2018,09,02,11,48,2.10
2018,09,02,11,49,3.30
2018,09,02,11,50,8.10
2018,09,02,11,51,5.80
2018,09,02,11,52,8.20
2018,09,02,11,53,4.00
2018,09,02,11,54,5.30
2018,09,02,11,55,8.00
2018,09,02,11,56,3.50
2018,09,02,11,57,7.70
2018,09,02,11,58,7.30
2018,09,02,11,59,10.20
2018,09,02,12,00,4.30
2018,09,02,12,01,1.50
2018,09,02,12,02,5.50
2018,09,02,12,03,5.70
2018,09,02,12,04,5.00
2018,09,02,12,05,4.10
2018,09,02,12,06,5.40
2018,09,02,12,07,5.70
2018,09,02,12,08,2.50
2018,09,02,12,09,3.40
2018,09,02,12,10,4.80
2018,09,02,12,11,5.90
2018,09,02,12,12,4.40
2018,09,02,12,13,3.30
2018,09,02,12,14,7.40
2018,09,02,12,15,3.90
2018,09,02,12,16,2.00
2018,09,02,12,17,7.90
2018,09,02,12,18,5.80
2018,09,02,12,19,7.80
2018,09,02,12,20,5.80
2018,09,02,12,21,6.90
2018,09,02,12,22,5.50
2018,09,02,12,23,4.00
2018,09,02,12,24,3.50
2018,09,02,12,25,2.40
2018,09,02,12,26,6.60
2018,09,02,12,27,6.80
2018,09,02,12,28,2.80
2018,09,02,12,29,5.10
2018,09,02,12,30,1.30
2018,09,02,12,31,5.00
2018,09,02,12,32,3.50
2018,09,02,12,33,3.40
2018,09,02,12,34,8.00
2018,09,02,12,35,5.10
2018,09,02,12,36,3.40
2018,09,02,12,37,3.80
2018,09,02,12,38,4.90
2018,09,02,12,39,4.80
2018,09,02,12,40,4.60
2018,09,02,12,41,5.30
2018,09,02,12,42,4.90
2018,09,02,12,43,3.40
2018,09,02,12,44,7.70
2018,09,02,12,45,4.10
2018,09,02,12,46,3.50
2018,09,02,12,47,6.20
2018,09,02,12,48,9.30
2018,09,02,12,49,5.50
2018,09,02,12,50,3.20
2018,09,02,12,51,2.60
2018,09,02,12,52,2.40
2018,09,02,12,53,8.30
2018,09,02,12,54,6.10
2018,09,02,12,55,2.80
2018,09,02,12,56,4.80
2018,09,02,12,57,5.30
2018,09,02,12,58,2.80
2018,09,02,12,59,2.00
2018,09,02,13,00,4.20
2018,09,02,13,01,5.30
2018,09,02,13,02,3.20
2018,09,02,13,03,3.80
2018,09,02,13,04,5.00
2018,09,02,13,05,3.40
2018,09,02,13,06,2.10
2018,09,02,13,07,6.20
2018,09,02,13,08,8.80
2018,09,02,13,09,3.10
2018,09,02,13,10,4.00
2018,09,02,13,11,3.60
2018,09,02,13,12,3.50
2018,09,02,13,13,6.80
2018,09,02,13,14,3.90
2018,09,02,13,15,5.40
2018,09,02,13,16,2.90
2018,09,02,13,17,10.80
2018,09,02,13,18,7.50
2018,09,02,13,19,5.20
2018,09,02,13,20,4.70
2018,09,02,13,21,6.20
2018,09,02,13,22,7.00
2018,09,02,13,23,10.00
2018,09,02,13,24,8.20
2018,09,02,13,25,6.50
2018,09,02,13,26,6.80
2018,09,02,13,27,2.90
2018,09,02,13,28,3.20
2018,09,02,13,29,4.00
2018,09,02,13,30,4.00
2018,09,02,13,31,10.40
2018,09,02,13,32,4.30
2018,09,02,13,33,7.20
2018,09,02,13,34,9.90
2018,09,02,13,35,4.20
2018,09,02,13,36,3.70
2018,09,02,13,37,7.20
2018,09,02,13,38,13.50
2018,09,02,13,39,6.10
2018,09,02,13,40,6.60
2018,09,02,13,41,5.70
2018,09,02,13,42,6.70
2018,09,02,13,43,4.60
2018,09,02,13,44,8.30
2018,09,02,13,45,4.20
2018,09,02,13,46,4.70
2018,09,02,13,47,2.90
2018,09,02,13,48,2.50
2018,09,02,13,49,10.00
2018,09,02,13,50,7.50
2018,09,02,13,51,4.90
2018,09,02,13,52,3.30
2018,09,02,13,53,6.00
2018,09,02,13,54,4.90
2018,09,02,13,55,8.70
2018,09,02,13,56,5.00
2018,09,02,13,57,7.60
2018,09,02,13,58,7.60
2018,09,02,13,59,8.90
2018,09,02,14,00,16.00
2018,09,02,14,01,8.80
2018,09,02,14,02,8.50
2018,09,02,14,03,9.00
2018,09,02,14,04,6.00
2018,09,02,14,05,9.10
2018,09,02,14,06,8.70
2018,09,02,14,07,5.20
2018,09,02,14,08,3.20
2018,09,02,14,09,4.50
2018,09,02,14,10,6.40
2018,09,02,14,11,3.30
2018,09,02,14,12,6.60
2018,09,02,14,13,3.70
2018,09,02,14,14,6.80
2018,09,02,14,15,6.40
2018,09,02,14,16,4.80
2018,09,02,14,17,6.30
2018,09,02,14,18,6.10
2018,09,02,14,19,5.20
2018,09,02,14,20,5.80
2018,09,02,14,21,6.80
2018,09,02,14,22,3.50
2018,09,02,14,23,8.10
2018,09,02,14,24,7.90
2018,09,02,14,25,5.40
2018,09,02,14,26,8.00
2018,09,02,14,27,4.70
2018,09,02,14,28,4.40
2018,09,02,14,29,5.00
2018,09,02,14,30,6.30
2018,09,02,14,31,4.50
2018,09,02,14,32,5.10
2018,09,02,14,33,2.70
2018,09,02,14,34,3.50
2018,09,02,14,35,5.20
2018,09,02,14,36,6.60
2018,09,02,14,37,6.70
2018,09,02,14,38,5.60
2018,09,02,14,39,2.80
2018,09,02,14,40,3.00
2018,09,02,14,41,4.30
2018,09,02,14,42,4.30
2018,09,02,14,43,6.20
2018,09,02,14,44,2.90
2018,09,02,14,45,4.30
2018,09,02,14,46,6.80
2018,09,02,14,47,3.10
2018,09,02,14,48,5.10
2018,09,02,14,49,1.90
2018,09,02,14,50,3.50
2018,09,02,14,51,5.30
2018,09,02,14,52,3.30
2018,09,02,14,53,6.30
2018,09,02,14,54,4.70
2018,09,02,14,55,3.40
2018,09,02,14,56,5.60
2018,09,02,14,57,3.20
2018,09,02,14,58,3.20
2018,09,02,14,59,5.90
2018,09,02,15,00,4.40
2018,09,02,15,01,2.10
2018,09,02,15,02,2.40
2018,09,02,15,03,4.90
2018,09,02,15,04,4.70
2018,09,02,15,05,2.10
2018,09,02,15,06,3.00
2018,09,02,15,07,1.90
2018,09,02,15,08,3.00
2018,09,02,15,09,3.00
2018,09,02,15,10,3.60
2018,09,02,15,11,2.00
2018,09,02,15,12,2.00
2018,09,02,15,13,2.00
2018,09,02,15,14,5.50
2018,09,02,15,15,5.20
2018,09,02,15,16,3.10
2018,09,02,15,17,2.70
2018,09,02,15,18,0.40
2018,09,02,15,19,5.40
2018,09,02,15,20,3.70
2018,09,02,15,21,6.20
2018,09,02,15,22,6.60
2018,09,02,15,23,1.20
2018,09,02,15,24,3.40
2018,09,02,15,25,2.40
2018,09,02,15,26,5.30
2018,09,02,15,27,6.60
2018,09,02,15,28,4.20
2018,09,02,15,29,4.10
2018,09,02,15,30,5.90
2018,09,02,15,31,6.60
2018,09,02,15,32,6.60
2018,09,02,15,33,5.00
2018,09,02,15,34,3.60
2018,09,02,15,35,6.50
2018,09,02,15,36,6.30
2018,09,02,15,37,9.90
2018,09,02,15,38,4.40
2018,09,02,15,39,6.60
2018,09,02,15,40,4.90
2018,09,02,15,41,4.40
2018,09,02,15,42,2.90
2018,09,02,15,43,5.50
2018,09,02,15,44,6.60
2018,09,02,15,45,5.00
2018,09,02,15,46,4.00
2018,09,02,15,47,3.90
2018,09,02,15,48,4.80
2018,09,02,15,49,7.80
2018,09,02,15,50,6.90
2018,09,02,15,51,3.70
2018,09,02,15,52,5.90
2018,09,02,15,53,9.10
2018,09,02,15,54,13.50
2018,09,02,15,55,4.70
2018,09,02,15,56,10.10
2018,09,02,15,57,7.60
2018,09,02,15,58,6.60
2018,09,02,15,59,4.40
2018,09,02,16,00,4.50
2018,09,02,16,01,8.40
2018,09,02,16,02,4.00
2018,09,02,16,03,4.00
2018,09,02,16,04,4.40
2018,09,02,16,05,4.50
2018,09,02,16,06,3.10
2018,09,02,16,07,2.40
2018,09,02,16,08,1.90
2018,09,02,16,09,5.30
2018,09,02,16,10,2.10
2018,09,02,16,11,4.30
2018,09,02,16,12,4.30
2018,09,02,16,13,4.20
2018,09,02,16,14,2.30
2018,09,02,16,15,2.80
2018,09,02,16,16,3.00
2018,09,02,16,17,7.00
2018,09,02,16,18,5.30
2018,09,02,16,19,3.30
2018,09,02,16,20,5.20
2018,09,02,16,21,5.30
2018,09,02,16,22,3.40
2018,09,02,16,23,1.80
2018,09,02,16,24,2.90
2018,09,02,16,25,5.50
2018,09,02,16,26,1.50
2018,09,02,16,27,3.20
2018,09,02,16,28,1.80
2018,09,02,16,29,5.50
2018,09,02,16,30,6.20
2018,09,02,16,31,7.70
2018,09,02,16,32,5.20
2018,09,02,16,33,6.40
2018,09,02,16,34,4.70
2018,09,02,16,35,10.40
2018,09,02,16,36,4.70
2018,09,02,16,37,3.50
2018,09,02,16,38,5.80
2018,09,02,16,39,7.70
2018,09,02,16,40,4.40
2018,09,02,16,41,1.20
2018,09,02,16,42,5.60
2018,09,02,16,43,1.90
2018,09,02,16,44,1.90
2018,09,02,16,45,1.90
2018,09,02,16,46,5.00
2018,09,02,16,47,6.60
2018,09,02,16,48,9.40
2018,09,02,16,49,8.60
2018,09,02,16,50,7.00
2018,09,02,16,51,7.00
2018,09,02,16,52,6.80
2018,09,02,16,53,3.20
2018,09,02,16,54,2.60
2018,09,02,16,55,3.90
2018,09,02,16,56,4.80
2018,09,02,16,57,5.70
2018,09,02,16,58,6.40
2018,09,02,16,59,4.60
2018,09,02,17,00,4.00
2018,09,02,17,01,3.70
2018,09,02,17,02,4.40
2018,09,02,17,03,6.40
2018,09,02,17,04,7.10
2018,09,02,17,05,5.70
2018,09,02,17,06,4.70
2018,09,02,17,07,6.40
2018,09,02,17,08,4.60
2018,09,02,17,09,6.90
2018,09,02,17,10,6.10
2018,09,02,17,11,5.40
2018,09,02,17,12,3.30
2018,09,02,17,13,1.60
2018,09,02,17,14,2.90
2018,09,02,17,15,5.10
2018,09,02,17,16,4.20
2018,09,02,17,17,4.90
2018,09,02,17,18,6.30
2018,09,02,17,19,3.70
2018,09,02,17,20,1.80
2018,09,02,17,21,2.50
2018,09,02,17,22,4.60
2018,09,02,17,23,4.80
2018,09,02,17,24,5.00
2018,09,02,17,25,7.70
2018,09,02,17,26,3.20
2018,09,02,17,27,3.10
2018,09,02,17,28,1.70
2018,09,02,17,29,2.60
2018,09,02,17,30,5.00
2018,09,02,17,31,5.30
2018,09,02,17,32,8.00
2018,09,02,17,33,6.30
2018,09,02,17,34,7.80
2018,09,02,17,35,5.10
2018,09,02,17,36,7.50
2018,09,02,17,37,8.50
2018,09,02,17,38,5.20
2018,09,02,17,39,5.00
2018,09,02,17,40,5.30
2018,09,02,17,41,8.70
2018,09,02,17,42,5.30
2018,09,02,17,43,6.80
2018,09,02,17,44,6.30
2018,09,02,17,45,4.40
2018,09,02,17,46,3.60
2018,09,02,17,47,5.30
2018,09,02,17,48,6.20
2018,09,02,17,49,4.10
2018,09,02,17,50,6.90
2018,09,02,17,51,6.40
2018,09,02,17,52,4.30
2018,09,02,17,53,2.30
2018,09,02,17,54,3.10
2018,09,02,17,55,2.20
2018,09,02,17,56,5.90
2018,09,02,17,57,2.20
2018,09,02,17,58,4.20
2018,09,02,17,59,3.10
2018,09,02,18,00,2.20
2018,09,02,18,01,1.70
2018,09,02,18,02,3.00
2018,09,02,18,03,2.00
2018,09,02,18,04,2.30
2018,09,02,18,05,2.00
2018,09,02,18,06,3.50